Volver al catálogo

SL-16 DEB

LostLEO
NORAD 39868·DEBRIS·🇷🇺 Russia

Lanzado Mar 26, 1993 desde Baikonur Cosmodrome

Loading…

Próximos Pases (próximas 24 horas)

TLE

ObsoletoSource: Space-Track

Época: Sep 13, 2022, 22:43 UTC

1 39868U 93016AS  22256.94687649  .00005798  00000-0  25695-2 0  9991
2 39868  70.9603  94.8924 0129968 197.7275 161.9295 14.19057638912728

Sigue SL-16 DEB en tiempo real con AllMySat

Download on the App Store